Weather in Razdolnoe

Ukraine / Kherson District     46˚09′30″N   33˚14′01″E
temp.,
°C
wind,
m/s
gust,
m/s
humid.,
%
clouds,
%
prec.,
mm/h
press.,
hPa
HPBL,
m
27 november, fri
fri2723:00+5˚se23852 0.0 102629
02:00+4˚sse33887 0.0 102537
05:00+4˚sse33889 0.0 102427
08:00+5˚sse34905 0.0 102364
11:00+12˚ssw796753 0.0 1023985
14:00+12˚sw797055 0.0 1022946
17:00+9˚ssw49865 0.0 1021194
20:00+9˚ssw510863 0.0 1021209
28 november, sat
sat2823:00+9˚ssw511870 0.0 1021292
02:00+9˚ssw410890 0.0 1021218
05:00+10˚ssw5108864 0.1 1020308
08:00+11˚ssw6107782 0.1 1020622
11:00+12˚ssw7969100 0.1 10201039
14:00+12˚ssw6867100 0.1 10191082
17:00+11˚s4873100 0.0 1018415
20:00+10˚se4772100 0.0 1019282
29 november, sun
sun2923:00+9˚sse477797 0.0 1018236
02:00+8˚sse468498 0.0 1018138
05:00+9˚sse4693100 0.0 1018170
08:00+10˚sse5889100 0.1 1018291
11:00+13˚s7969100 0.1 10181068
14:00+13˚ssw71069100 0.2 10181038
17:00+11˚s41083100 0.1 1018323
20:00+11˚s51086100 0.4 1020290
30 november, mon
mon3023:00+11˚sse4786100 0.4 1020243
02:00+10˚sse3782100 0.6 1020293
05:00+10˚sse3577100 0.1 1020172
08:00+10˚ese2469100 0.1 1020153
11:00+11˚ese5771100 0.0 1020367
14:00+10˚e6966100 0.0 1020458
17:00+7˚ene51080100 0.0 1020501
20:00+6˚ene51083100 0.0 1021478
1 december, tue
tue123:00+5˚ne5982100 0.0 1021324
02:00+5˚ne5986100 0.0 1021314
05:00+5˚ne598996 0.0 1021367
08:00+6˚ne587998 0.0 1021574
11:00+6˚ene5670100 0.0 1021630
14:00+5˚ne4670100 0.0 1020537
17:00+5˚ne4673100 0.0 1021388
20:00+5˚nne4676100 0.0 1021302